THOR ABLESTAR DEB, 655

Orbit data source: Space-Track

THOR ABLESTAR DEB, 655 is space debris in LEO originally from a launch on Thu, 29 Jun 1961 UTC launched from the Air Force Eastern Test Range (AFETR). Debris objects in space refer to the collection of defunct objects orbiting the Earth. Examples of debris include non-operational satellites, rocket bodies, and fragments generated from explosions, collisions, or faulty payload assembly.

Loading next visibility...
Identifier
655, 1961-015HG
Orbit
LEO
Country
Flag of USUS
Related business
Manufacturer
Unknown
Mission
Spacecraft
Bus & Motor
Unknown
Mass
Unknown
Launch date (UTC)
1961-06-29 (64 years ago)
Launch vehicle
Unknown
Launch site
Air Force Eastern Test Range (AFETR)
Object type
Payload
Rocket body
Debris
Shape & HBR
Unknown
Radar Cross Section
Small (<0.1 m²)

Expand to show TLE details & history
Last TLE update: 20 hours ago

TLE from 20 hours ago
0 THOR ABLESTAR DEB
1 00655U 61015HG  25258.94549633  .00001002  00000-0  22181-2 0  9993
2 00655  67.2552  93.3461 0365477 149.3844 330.3361 13.09327434 51029
Epoch: 2025-09-15T22:41Z
TLE epoch observation values (Epoch: 2025-09-15T22:41:30.882Z)
Latitude
54.95855°
Longitude
-98.66503°
Altitude
995.145 km
Speed
7.474 km/s
True Right ascension
15h 47m 25s
True Declination
54° 48' 07"
Sunlit
Object was in daylight at epoch
Visualization orbit readout
Latitude
Unknown
Longitude
Unknown
Altitude
Unknown
Speed
Unknown
Apparent Right ascension
Unknown
Apparent Declination
Unknown
Sunlit
N/A
Visualization observer readout
Local Sidereal Time
11:10:04
Azimuth
Unknown
Elevation
Unknown
Doppler factor
Unknown
Orbital elements
Apogee altitude
1,502.013 km
Perigee altitude
946.32 km
Semi-major axis
7,602.303 km
Eccentricity
0.03655
Inclination
67.2552°
RAAN
93.3461°
Arg. of periapsis
149.3844°
True anomaly
328.17836°
Mean anomaly
330.3361°
Eccentric anomaly
329.26594°
Mean motion
3.27435 °/min
Orbital period
109.95 mins
BSTAR
0.0022181
Loading maneuver chart data...
Computing Atmospheric mass density...

Documentation

Showing up to 5 results
|